Location: Oshawa
(43.9000°N, 78.8670°W)
Time: 16:41:44
(UTC-04:00)

Cosmos 1805 Rocket - Visible Passes

Search period start: 30 April 2016 00:00
Search period end: 10 May 2016 00:00
Orbit: 606 x 631 km, 82.5° (Epoch: 30 April)

Date Brightness Start Highest point End Pass type
(mag) Time Alt. Az. Time Alt. Az. Time Alt. Az.
30 Apr 6.4 04:50:44 10° ESE 04:53:19 16° E 04:55:53 10° NE visible
01 May 5.7 05:06:34 10° SSE 05:10:14 28° E 05:13:56 10° NNE visible
02 May 4.5 05:23:03 10° S 05:27:14 51° E 05:31:28 10° NNE visible
04 May 6.3 04:21:25 10° ESE 04:24:05 16° E 04:26:46 10° NE visible
05 May 5.5 04:37:17 10° SSE 04:41:00 29° E 04:44:45 10° NNE visible
06 May 4.3 04:53:48 10° S 04:58:00 53° E 05:02:16 10° NNE visible
07 May 3.5 05:10:47 10° S 05:15:06 82° W 05:19:30 10° N visible
08 May 6.2 03:52:05 10° SE 03:54:50 17° E 03:57:38 10° NE visible
09 May 5.3 04:08:00 10° SSE 04:11:46 30° E 04:15:35 10° NNE visible
